Stations météo

réclame
Mon MeteoGroup
Horn, Suède (2557): Température de l'air & dewpoint: 09.11.2018 22:00:00 - 15.11.2018 22:00:00 (CET)Horn, Suède (2557): Vitesse du vent & gusts: 09.11.2018 22:00:00 - 15.11.2018 22:00:00 (CET)Horn, Suède (2557): Direction du vent: 09.11.2018 22:00:00 - 15.11.2018 22:00:00 (CET)Horn, Suède (2557): reduced air pressure: 09.11.2018 22:00:00 - 15.11.2018 22:00:00 (CET)Horn, Suède (2557): visibility: 09.11.2018 22:00:00 - 15.11.2018 22:00:00 (CET)Horn, Suède (2557): Quantités de précipitations: 09.11.2018 22:00:00 - 15.11.2018 22:00:00 (CET)
Date & Time tt [°C] td [°C] ff [km/h] ff [knt] fx [km/h] fx [knt] dd ppp [hPa] vv [km] rr [mm]
15.11.2018 22:00:00 8,8 6,3 9 5 17 9 S 1032,4 9 0,0
15.11.2018 21:00:00 8,4 5,9 6 3 11 6 S 1032,0 9 0,0
15.11.2018 20:00:00 8,8 6,1 6 4 15 8 S 1031,7 13 0,0
15.11.2018 19:00:00 8,9 6,2 8 4 15 8 SSW 1031,2 15 0,0
15.11.2018 18:00:00 8,9 6,0 7 4 14 7 S 1030,7 16 0,0
15.11.2018 17:00:00 9,4 6,3 8 4 14 7 S 1030,5 21 0,0
15.11.2018 16:00:00 9,5 6,4 9 5 16 9 S 1030,4 25 0,0
15.11.2018 15:00:00 9,9 6,4 9 5 16 9 SSW 1030,0 35 0,0
15.11.2018 14:00:00 10,1 6,6 8 5 18 10 SW 1029,5 40 0,0
15.11.2018 13:00:00 10,2 6,5 8 4 22 12 S 1029,1 35 0,0
15.11.2018 12:00:00 9,9 6,8 11 6 22 12 SSW 1028,8 34 0,0
15.11.2018 11:00:00 9,1 6,2 6 3 16 9 SSW 1028,8 22 0,0
15.11.2018 10:00:00 8,1 5,7 9 5 17 9 SSW 1028,5 13 0,0
15.11.2018 09:00:00 7,8 5,6 10 5 17 9 S 1028,3 13 0,0
15.11.2018 08:00:00 7,4 5,2 7 4 12 7 S 1028,1 14 0,0
15.11.2018 07:00:00 6,5 4,5 5 3 14 8 SSW 1027,8 11 0,0
15.11.2018 06:00:00 6,3 4,1 6 3 14 8 S 1027,6 12 0,0
15.11.2018 05:00:00 6,9 4,7 7 4 13 7 S 1027,4 12 0,0
15.11.2018 04:00:00 6,7 4,7 7 4 13 7 SSW 1027,2 14 0,0
15.11.2018 03:00:00 3,7 1,6 2 1 6 4 SW 1027,2 1,3 0,0
15.11.2018 02:00:00 2,9 1,0 0 0 10 5 N 1027,0 2,1 0,0
15.11.2018 01:00:00 3,8 1,3 4 2 10 5 S 1026,9 10 0,0
15.11.2018 00:00:00 3,8 1,8 3 2 11 6 S 1026,7 2,2 0,0
14.11.2018 23:00:00 5,5 3,7 6 4 11 6 S 1026,3 16 0,0
14.11.2018 22:00:00 4,3 2,2 3 2 7 4 S 1026,1 16 0,0
14.11.2018 21:00:00 5,1 3,2 2 1 8 5 E 1026,1 18 0,0
14.11.2018 20:00:00 4,2 2,1 2 1 8 5 S 1026,0 18 0,0
14.11.2018 19:00:00 2,4 -0,2 3 2 5 3 WSW 1025,6 11 0,0
14.11.2018 18:00:00 3,4 0,9 0 0 8 4 N 1025,3 1,9 0,0
14.11.2018 17:00:00 5,3 2,3 0 0 9 5 N 1025,1 33 0,0
14.11.2018 16:00:00 7,4 4,0 6 3 12 7 S 1024,7 50 0,0
14.11.2018 15:00:00 8,1 4,5 6 4 17 9 SW 1024,1 50 0,0
14.11.2018 14:00:00 8,9 3,9 7 4 18 10 W 1023,8 50 0,0
14.11.2018 13:00:00 9,0 4,8 10 6 19 10 WSW 1023,4 44 0,0
14.11.2018 12:00:00 9,1 5,1 11 6 19 10 WSW 1023,1 46 0,0
14.11.2018 11:00:00 8,9 5,1 6 4 18 10 W 1022,5 49 0,0
14.11.2018 10:00:00 8,6 5,5 10 6 17 9 W 1022,0 29 0,0
14.11.2018 09:00:00 6,9 4,6 3 1 6 4 SSW 1021,0 19 0,0
14.11.2018 08:00:00 6,4 4,2 3 1 6 3 SE 1020,5 20 0,0
14.11.2018 07:00:00 6,0 3,7 3 2 8 4 SSE 1020,0 10 0,0
14.11.2018 06:00:00 5,6 3,3 3 1 14 8 E 1019,3 8 0,0
14.11.2018 05:00:00 7,3 5,4 9 5 14 8 WSW 1018,6 16 0,0
14.11.2018 04:00:00 7,2 5,0 5 3 9 5 SW 1018,0 18 0,0
14.11.2018 03:00:00 7,1 4,9 5 3 8 4 SW 1017,4 10 0,0
14.11.2018 02:00:00 7,3 5,1 4 2 8 4 SW 1016,9 8 0,0
14.11.2018 01:00:00 7,5 5,3 4 2 14 8 SSW 1016,4 8 0,0
14.11.2018 00:00:00 7,7 5,8 7 4 14 8 SSW 1016,0 8 0,0
13.11.2018 23:00:00 7,9 5,9 6 3 11 6 SSW 1015,7 11 0,0
13.11.2018 22:00:00 7,8 5,8 7 4 13 7 S 1015,4 13 0,0
13.11.2018 21:00:00 7,4 5,7 7 4 16 8 SSW 1015,5 13 0,0
13.11.2018 20:00:00 7,5 5,8 10 5 16 8 S 1015,2 18 0,2
13.11.2018 19:00:00 7,7 5,8 11 6 16 8 S 1015,4 23 0,1
13.11.2018 18:00:00 7,6 5,4 6 4 18 10 SSE 1015,6 42 0,0
13.11.2018 17:00:00 8,1 5,4 7 4 18 10 SSW 1015,6 47 0,0
13.11.2018 16:00:00 8,1 5,0 4 2 16 9 S 1015,5 47 0,0
13.11.2018 15:00:00 8,3 5,4 5 3 22 12 SW 1015,4 50 0,0
13.11.2018 14:00:00 8,5 5,8 10 5 22 12 SW 1015,2 50 0,0
13.11.2018 13:00:00 9,1 6,4 9 5 14 8 SSW 1015,1 42 0,0
13.11.2018 12:00:00 8,8 6,2 9 5 13 7 SSW 1015,5 44 0,0
13.11.2018 11:00:00 8,1 5,9 4 2 9 5 SSW 1015,8 42 0,0
13.11.2018 10:00:00 7,3 5,6 6 4 9 5 S 1016,0 49 0,0
13.11.2018 09:00:00 6,6 4,6 4 2 8 4 SSW 1015,5 27 0,0
13.11.2018 08:00:00 5,1 3,0 2 1 6 4 SSE 1014,9 1,8 0,0
13.11.2018 07:00:00 5,9 3,6 3 2 8 5 SSE 1014,0 8 0,0
13.11.2018 06:00:00 6,8 4,8 2 1 8 5 SSW 1014,2 14 0,0
13.11.2018 05:00:00 5,8 3,0 0 0 4 2 N 1013,6 0,8 0,0
13.11.2018 04:00:00 6,8 4,5 2 1 9 5 SW 1013,4 10 0,0
13.11.2018 03:00:00 7,1 4,6 3 2 13 7 W 1012,9 22 0,0
13.11.2018 02:00:00 7,9 5,9 8 4 13 7 NNW 1012,8 6 0,1
13.11.2018 01:00:00 7,8 5,6 3 2 8 5 NNW 1012,9 3,5 0,1
13.11.2018 00:00:00 7,8 5,8 4 2 9 5 N 1012,5 8 0,2
12.11.2018 23:00:00 7,8 5,6 5 3 8 4 N 1013,0 8 0,3
12.11.2018 22:00:00 7,9 5,2 3 2 13 7 NE 1014,1 4,0 1,8
12.11.2018 21:00:00 8,5 6,1 3 2 16 9 E 1014,6 16 0,3
12.11.2018 20:00:00 8,6 6,7 9 5 16 9 SE 1014,7 18 0,0
12.11.2018 19:00:00 8,2 6,2 7 4 11 6 SSE 1015,2 19 0,0
12.11.2018 18:00:00 7,9 5,4 5 3 12 6 S 1015,7 25 0,0
12.11.2018 17:00:00 8,5 5,8 4 2 12 6 S 1015,9 28 0,0
12.11.2018 16:00:00 7,8 5,4 4 2 10 5 SSE 1016,1 20 0,0
12.11.2018 15:00:00 8,8 6,1 6 4 18 10 SE 1015,8 31 0,0
12.11.2018 14:00:00 10,0 6,3 8 5 24 13 S 1016,0 38 0,0
12.11.2018 13:00:00 - - - - 24 13 - - - -
12.11.2018 12:00:00 10,4 7,5 11 6 18 10 SSW 1016,0 34 0,0
12.11.2018 11:00:00 10,2 7,6 10 5 21 11 SSW 1015,5 22 0,0
12.11.2018 10:00:00 9,7 7,6 12 6 21 11 SSW 1015,3 15 0,0
12.11.2018 09:00:00 9,3 7,1 6 4 14 7 S 1014,7 10 0,0
12.11.2018 08:00:00 9,2 7,0 5 3 18 10 S 1014,4 8 0,0
12.11.2018 07:00:00 9,1 7,2 10 5 18 10 SSE 1013,8 6 0,0
12.11.2018 06:00:00 9,1 7,2 8 5 18 10 S 1013,5 6 0,0
12.11.2018 05:00:00 9,0 7,1 10 6 18 10 S 1013,4 5 0,0
12.11.2018 04:00:00 8,7 7,0 10 5 21 11 S 1012,9 4,1 0,0
12.11.2018 03:00:00 8,7 7,0 8 5 21 11 S 1012,8 4,2 0,0
12.11.2018 02:00:00 8,6 7,1 11 6 23 13 SSE 1012,5 4,5 0,0
12.11.2018 01:00:00 8,5 7,0 13 7 23 13 SSE 1012,4 5 0,0
12.11.2018 00:00:00 8,4 6,5 11 6 19 10 SSE 1012,3 6 0,3
11.11.2018 23:00:00 8,1 6,4 9 5 19 10 SSE 1012,1 3,8 0,8
11.11.2018 22:00:00 8,0 6,3 10 6 20 11 SE 1012,2 4,8 0,2
11.11.2018 21:00:00 7,8 6,1 10 5 23 13 SE 1012,3 3,3 0,0
11.11.2018 20:00:00 7,6 5,9 10 5 35 19 SE 1012,4 3,0 0,0
11.11.2018 19:00:00 7,6 5,7 14 8 35 19 SSE 1012,6 4,6 0,0
11.11.2018 18:00:00 7,6 6,1 19 11 31 17 SE 1012,8 4,0 0,0
11.11.2018 17:00:00 7,7 6,0 12 7 29 16 SE 1012,7 4,9 0,0
11.11.2018 16:00:00 7,8 6,1 13 7 25 13 SE 1012,7 3,9 0,0
11.11.2018 15:00:00 8,2 6,5 13 7 26 14 SE 1012,8 3,1 0,0
11.11.2018 14:00:00 8,5 6,6 17 9 26 14 SSE 1012,8 4,2 0,0
11.11.2018 13:00:00 8,3 6,6 11 6 29 16 SE 1012,8 3,3 0,0
11.11.2018 12:00:00 8,4 6,5 15 8 32 17 SE 1012,9 3,9 0,0
11.11.2018 11:00:00 8,6 6,7 17 9 35 19 SSE 1013,1 4,0 0,0
11.11.2018 10:00:00 8,5 6,5 14 8 35 19 SSE 1013,0 3,9 0,0
11.11.2018 09:00:00 8,3 6,4 16 9 35 19 SSE 1013,2 2,9 0,0
11.11.2018 08:00:00 8,6 6,7 13 7 31 17 SE 1013,1 3,5 0,0
11.11.2018 07:00:00 8,8 6,6 14 8 32 17 SE 1012,9 3,6 0,0
11.11.2018 06:00:00 8,7 6,5 19 11 32 17 SSE 1013,2 4,2 0,0
11.11.2018 05:00:00 8,7 6,5 13 7 32 18 SE 1013,3 3,8 0,0
11.11.2018 04:00:00 8,8 6,6 14 7 32 18 SE 1013,2 4,2 0,0
11.11.2018 03:00:00 8,8 6,6 15 8 26 14 SE 1013,4 4,5 0,0
11.11.2018 02:00:00 8,9 6,7 15 8 23 13 SE 1013,6 4,7 0,0
11.11.2018 01:00:00 8,8 6,6 13 7 23 12 SE 1013,5 4,3 0,0
11.11.2018 00:00:00 8,3 6,4 9 5 20 11 SE 1013,8 3,6 0,0
10.11.2018 23:00:00 8,0 6,3 11 6 20 11 SE 1013,9 4,7 0,0
10.11.2018 22:00:00 7,8 6,1 11 6 20 11 SE 1013,9 3,8 0,0
10.11.2018 21:00:00 7,5 5,6 8 4 22 12 SE 1014,1 3,5 0,0
10.11.2018 20:00:00 7,5 5,3 9 5 26 14 SE 1014,0 7 0,0
10.11.2018 19:00:00 7,7 5,7 16 9 26 14 SSE 1013,8 11 0,0
10.11.2018 18:00:00 8,0 6,0 10 5 27 14 SE 1013,7 13 0,0
10.11.2018 17:00:00 8,0 6,0 9 5 27 14 SE 1013,8 13 0,0
10.11.2018 16:00:00 8,2 6,2 12 6 24 13 SE 1013,4 14 0,0
10.11.2018 15:00:00 8,2 6,3 13 7 21 11 ESE 1012,7 12 0,0
10.11.2018 14:00:00 8,2 6,2 8 4 21 11 ESE 1013,2 9 0,0
10.11.2018 13:00:00 8,1 6,2 9 5 22 12 ESE 1013,7 5 0,1
10.11.2018 12:00:00 8,1 6,4 11 6 22 12 SE 1014,0 5 0,0
10.11.2018 11:00:00 7,8 5,9 9 5 22 12 ESE 1013,9 4,9 0,0
10.11.2018 10:00:00 7,7 6,2 9 5 16 9 ESE 1014,0 4,2 0,0
10.11.2018 09:00:00 7,5 5,8 11 6 16 9 ESE 1014,2 13 0,0
10.11.2018 08:00:00 7,4 5,5 6 3 14 8 ESE 1014,5 6 0,1
10.11.2018 07:00:00 7,3 5,4 7 4 14 7 E 1014,3 3,2 0,0
10.11.2018 06:00:00 - - - - 14 7 - - - -
10.11.2018 05:00:00 7,3 5,4 7 4 13 7 ESE 1014,6 12 0,0
10.11.2018 04:00:00 7,3 5,6 7 4 15 8 SE 1015,1 7 0,0
10.11.2018 03:00:00 7,2 5,7 8 4 15 8 ESE 1015,2 6 0,0
10.11.2018 02:00:00 7,2 5,7 9 5 14 8 SE 1015,6 12 0,0
10.11.2018 01:00:00 - - - - 13 7 - - - -
10.11.2018 00:00:00 7,1 5,4 4 2 15 8 E 1016,6 2,0 0,1
09.11.2018 23:00:00 7,2 5,5 7 4 15 8 ESE 1017,2 4,0 0,0
09.11.2018 22:00:00 7,2 5,3 6 3 12 6 ESE 1017,6 6 0,0

tt = Température de l'air
td = dewpoint
ff = Vitesse du vent
fx = gusts
dd = Direction du vent
ppp = reduced air pressure
vv = visibility
rr = Quantités de précipitations

stations d'obs. à proximité